Simultaneous Nadir Overpasses (SNOs) Predictions

Prediction of SNOs between FY3D and TERRA Satellite Orbit:

Table of predicted SNOs for the next 14.0 days since TLE Epoch: 3/30/2024
Index Date (FY3D) Time (FY3D) Lat,Lon (FY3D) SZA (FY3D ) Date (TERRA) Time (TERRA) Lat,Lon (TERRA) SZA (TERRA ) Distance(km) Time Diff (sec)
1 03/31/2024 16:57:20 75.25, -74.23 70.63 03/31/2024 16:57:39 75.26, -74.17 70.64 2.34 19
2 03/31/2024 17:48:03 -75.19, 93.25 109.44 03/31/2024 17:47:02 -75.21, 93.34 109.43 3.08 61
3 04/03/2024 04:10:22 75.30, 117.40 69.73 04/03/2024 04:11:19 75.30, 117.49 69.74 2.38 57
4 04/03/2024 05:01:05 -75.24, -75.11 110.34 04/03/2024 05:00:42 -75.25, -75.00 110.34 3.10 23
5 04/05/2024 16:14:06 -75.26, 116.64 111.26 04/05/2024 16:14:22 -75.25, 116.54 111.28 2.94 16
6 04/05/2024 17:04:52 75.23, -75.95 68.69 04/05/2024 17:03:44 75.19, -75.94 68.66 3.69 68
7 04/08/2024 03:27:08 -75.33, -51.79 112.12 04/08/2024 03:28:00 -75.31, -51.74 112.14 3.10 52
8 04/08/2024 04:17:53 75.25, 115.76 67.80 04/08/2024 04:17:22 75.25, 115.77 67.79 0.46 31
9 04/10/2024 14:40:22 -75.97, 137.91 112.38 04/10/2024 14:41:27 -75.88, 141.41 112.48 95.04 65
10 04/10/2024 15:30:54 75.29, -52.57 66.92 04/10/2024 15:31:00 75.27, -52.62 66.90 2.90 6
11 04/10/2024 16:21:36 -75.19, 115.07 113.20 04/10/2024 16:20:23 -75.21, 114.88 113.18 5.92 73
12 04/13/2024 02:43:55 75.35, 139.07 66.07 04/13/2024 02:44:36 75.35, 139.15 66.08 2.36 41
13 04/13/2024 03:34:38 -75.29, -53.43 114.00 04/13/2024 03:33:59 -75.29, -53.35 114.00 2.49 39



Historial Predications of SNOs between FY3D and TERRA
